Weather reports worldwide

Advertisment
Andernach, Germany (10520): temperature & dewpoint: 13.07.2018 13:00:00 - 19.07.2018 13:00:00 (CEST)Andernach, Germany (10520): temperature 5cm & temperature -5cm: 13.07.2018 13:00:00 - 19.07.2018 13:00:00 (CEST)Andernach, Germany (10520): temperature -20cm & temperature -100cm: 13.07.2018 13:00:00 - 19.07.2018 13:00:00 (CEST)Andernach, Germany (10520): wind speed & gusts: 13.07.2018 13:00:00 - 19.07.2018 13:00:00 (CEST)Andernach, Germany (10520): wind direction: 13.07.2018 13:00:00 - 19.07.2018 13:00:00 (CEST)Andernach, Germany (10520): reduced air pressure: 13.07.2018 13:00:00 - 19.07.2018 13:00:00 (CEST)Andernach, Germany (10520): visibility: 13.07.2018 13:00:00 - 19.07.2018 13:00:00 (CEST)Andernach, Germany (10520): sunshine duration: 13.07.2018 13:00:00 - 19.07.2018 13:00:00 (CEST)Andernach, Germany (10520): precipitation: 13.07.2018 13:00:00 - 19.07.2018 13:00:00 (CEST)
Date & Time tt [°C] td [°C] tt 5cm [°C] tt -5cm [°C] tt -20cm [°C] tt -100cm [°C] ff [km/h] ff [kn] fx [km/h] fx [kn] dd ppp [hPa] vv [km] sd [min] rr [mm]
19.07.2018 13:00:00 25,7 6,8 36,4 32,0 24,2 21,0 8 4 16 9 N 1017,7 39 60 0,0
19.07.2018 12:00:00 25,8 10,4 30,6 29,2 23,8 21,0 9 5 16 9 SE 1018,2 47 60 0,0
19.07.2018 11:00:00 23,9 10,9 28,9 25,8 23,6 21,0 5 3 13 7 E 1018,5 51 60 0,0
19.07.2018 10:00:00 20,7 11,2 25,0 23,1 23,7 21,0 2 1 7 4 NE 1019,2 45 47 0,0
19.07.2018 09:00:00 18,6 11,4 20,9 21,0 23,9 20,9 3 2 6 4 S 1019,0 31 60 0,0
19.07.2018 08:00:00 16,2 11,1 17,4 19,7 24,2 20,9 3 1 6 3 SSE 1019,0 29 60 0,0
19.07.2018 07:00:00 13,1 10,6 13,1 19,4 24,6 21,0 4 2 8 4 SSW 1019,0 27 21 0,0
19.07.2018 06:00:00 12,1 10,2 8,6 19,9 25,0 20,9 4 2 7 4 S 1018,9 24 0 0,0
19.07.2018 05:00:00 12,7 10,4 10,6 20,6 25,4 20,9 6 3 8 5 SSW 1018,8 26 0 0,0
19.07.2018 04:00:00 13,5 10,7 9,5 21,4 25,9 20,9 4 2 8 4 SSW 1018,7 32 0 0,0
19.07.2018 03:00:00 13,5 10,9 10,2 22,3 26,3 20,9 4 2 9 5 S 1018,5 27 0 0,0
19.07.2018 02:00:00 14,8 11,2 11,3 23,3 26,8 20,9 5 3 8 4 SSW 1018,4 36 0 0,0
19.07.2018 01:00:00 15,7 11,5 13,5 24,4 27,2 20,9 8 4 9 5 SSW 1018,2 37 0 0,0
19.07.2018 00:00:00 17,3 11,7 12,4 25,8 27,7 20,9 5 3 9 5 SSW 1017,9 48 0 0,0
18.07.2018 23:00:00 18,8 11,9 14,4 27,5 28,0 20,9 6 4 8 5 SSW 1017,3 43 0 0,0
18.07.2018 22:00:00 22,0 10,2 15,6 29,6 28,3 20,9 4 2 10 5 NNW 1016,9 70 4 0,0
18.07.2018 21:00:00 24,7 9,1 23,5 32,0 28,3 20,9 7 4 17 9 N 1016,6 70 60 0,0
18.07.2018 20:00:00 25,8 8,5 26,6 34,1 28,2 20,9 10 5 24 13 NNE 1016,6 70 60 0,0
18.07.2018 19:00:00 26,7 8,1 30,1 35,8 27,8 20,9 11 6 29 16 NW 1016,3 56 60 0,0
18.07.2018 18:00:00 26,5 8,2 30,2 36,8 27,2 20,9 13 7 25 14 NW 1016,6 69 60 0,0
18.07.2018 17:00:00 26,7 8,7 32,3 37,0 26,6 20,8 9 5 26 14 NW 1017,1 49 60 0,0
18.07.2018 16:00:00 26,3 9,0 34,6 36,5 25,8 20,8 13 7 23 13 NNW 1017,2 58 60 0,0
18.07.2018 15:00:00 25,6 9,1 34,7 35,2 25,0 20,8 12 6 23 12 NNW 1017,6 52 60 0,0
18.07.2018 14:00:00 24,9 8,4 33,4 33,3 24,3 20,8 13 7 27 15 NNW 1017,9 48 60 0,0
18.07.2018 13:00:00 24,8 8,9 33,1 31,1 23,7 20,8 12 7 23 12 NW 1018,2 46 60 0,0
18.07.2018 12:00:00 23,2 9,5 31,1 28,5 23,2 20,8 11 6 21 11 NW 1018,6 47 60 0,0
18.07.2018 11:00:00 21,6 11,5 27,4 25,1 23,0 20,8 7 4 11 6 N 1019,0 48 60 0,0
18.07.2018 10:00:00 20,3 12,1 24,9 22,0 23,0 20,8 5 3 16 9 NNW 1019,2 37 60 0,0
18.07.2018 09:00:00 18,1 11,2 21,5 20,0 23,2 20,8 12 6 20 11 NW 1019,2 33 60 0,0
18.07.2018 08:00:00 17,3 12,5 18,2 18,8 23,5 20,8 2 1 6 4 NE 1019,1 31 60 0,0
18.07.2018 07:00:00 14,8 12,2 13,7 18,4 23,8 20,8 2 1 5 3 ESE 1018,9 23 42 0,0
18.07.2018 06:00:00 12,8 11,5 9,4 18,9 24,2 20,8 3 2 9 5 SSW 1018,7 17 0 0,0
18.07.2018 05:00:00 14,9 13,0 11,0 19,7 24,5 20,8 3 2 9 5 W 1018,5 32 0 0,0
18.07.2018 04:00:00 16,2 13,7 14,1 20,5 24,9 20,7 6 3 11 6 NW 1018,3 31 0 0,0
18.07.2018 03:00:00 16,8 15,1 15,3 21,0 25,2 20,7 7 4 14 8 NW 1018,3 21 0 0,0
18.07.2018 02:00:00 17,0 15,2 15,0 21,6 25,6 20,7 4 2 16 9 N 1018,1 23 0 0,0
18.07.2018 01:00:00 17,1 16,1 16,0 22,0 26,0 20,7 4 2 13 7 N 1017,7 23 0 0,0
18.07.2018 00:00:00 16,1 14,5 13,0 23,0 26,5 20,7 2 1 6 3 W 1017,4 35 0 0,0
17.07.2018 23:00:00 17,4 15,8 14,2 24,3 26,8 20,7 3 1 9 5 SSW 1017,0 44 0 0,0
17.07.2018 22:00:00 19,2 16,0 17,2 25,8 27,2 20,7 6 3 17 9 NNW 1016,6 62 10 0,0
17.07.2018 21:00:00 20,8 14,5 20,6 27,7 27,4 20,7 10 5 29 16 N 1016,2 70 45 0,0
17.07.2018 20:00:00 20,2 15,7 19,1 29,7 27,3 20,7 17 9 42 23 NW 1015,5 45 19 0,7
17.07.2018 19:00:00 26,7 11,6 26,8 33,6 27,1 20,6 5 3 14 8 N 1013,9 70 44 0,0
17.07.2018 18:00:00 27,3 12,1 30,3 33,5 26,8 20,6 8 5 16 9 E 1014,3 61 60 0,0
17.07.2018 17:00:00 26,9 11,7 31,2 31,1 26,7 20,6 6 3 20 11 SE 1014,7 70 37 0,0
17.07.2018 16:00:00 23,8 14,4 25,5 29,9 26,5 20,6 13 7 36 19 NW 1015,0 70 20 0,0
17.07.2018 15:00:00 25,0 13,1 25,7 30,8 26,1 20,6 9 5 29 16 WNW 1014,3 70 17 1,2
17.07.2018 14:00:00 21,2 14,4 18,7 32,9 25,6 20,6 - - 40 21 - 1014,9 14 24 0,3
17.07.2018 13:00:00 29,0 9,7 37,3 32,1 25,2 20,6 10 6 36 20 NW 1014,2 60 59 0,0
17.07.2018 12:00:00 27,2 10,7 34,0 29,0 24,8 20,6 14 8 26 14 NW 1014,5 53 37 0,0
17.07.2018 11:00:00 25,2 11,9 31,6 27,1 24,6 20,6 8 5 14 8 NNW 1014,3 51 60 0,0
17.07.2018 10:00:00 22,5 10,9 26,3 24,4 24,6 20,6 4 2 8 5 WSW 1014,6 49 41 0,0
17.07.2018 09:00:00 19,8 11,6 21,7 23,0 24,8 20,6 3 2 6 3 WSW 1014,6 51 37 0,0
17.07.2018 08:00:00 17,0 10,5 17,8 21,5 25,1 20,6 5 3 8 4 S 1014,6 60 40 0,0
17.07.2018 07:00:00 15,6 11,3 15,9 21,0 25,5 20,5 3 2 6 4 NW 1014,2 58 34 0,0
17.07.2018 06:00:00 13,6 10,0 11,5 21,3 25,9 20,5 5 3 8 4 SSW 1013,9 63 0 0,0
17.07.2018 05:00:00 13,2 10,1 10,0 21,8 26,4 20,5 3 2 8 5 SSW 1013,6 61 0 0,0
17.07.2018 04:00:00 14,4 10,6 11,6 22,7 26,8 20,5 5 3 8 5 SW 1013,4 61 0 0,0
17.07.2018 03:00:00 15,6 10,5 11,2 23,7 27,3 20,5 4 2 7 4 SW 1013,3 70 0 0,0
17.07.2018 02:00:00 16,4 11,3 14,1 24,7 27,7 20,5 7 4 9 5 SSW 1013,3 66 0 0,0
17.07.2018 01:00:00 17,5 11,7 13,2 25,8 28,2 20,5 6 3 8 4 SSW 1013,1 64 0 0,0
17.07.2018 00:00:00 18,8 12,4 14,6 27,2 28,6 20,5 5 3 8 5 SSW 1012,7 46 0 0,0
16.07.2018 23:00:00 21,4 11,2 15,4 28,9 29,0 20,5 4 2 10 5 WNW 1012,0 70 0 0,0
16.07.2018 22:00:00 24,1 12,0 17,7 31,1 29,2 20,5 3 2 12 6 N 1011,4 70 17 0,0
16.07.2018 21:00:00 28,0 6,1 25,3 33,5 29,3 20,4 4 2 16 9 N 1010,6 70 60 0,0
16.07.2018 20:00:00 29,6 4,0 29,8 35,4 29,2 20,4 8 5 22 12 NNW 1010,2 70 60 0,0
16.07.2018 19:00:00 29,9 3,0 33,7 36,4 28,8 20,4 13 7 23 12 N 1010,1 70 50 0,0
16.07.2018 18:00:00 30,2 4,1 34,0 38,0 28,5 20,4 6 3 22 12 NNE 1010,1 70 59 0,0
16.07.2018 17:00:00 30,6 5,7 36,0 37,7 27,9 20,4 11 6 22 12 NW 1010,3 63 60 0,0
16.07.2018 16:00:00 29,9 5,5 35,0 36,6 27,2 20,4 5 3 21 12 N 1010,7 70 29 0,0
16.07.2018 15:00:00 30,0 5,6 37,0 38,0 26,4 20,4 6 4 17 9 WNW 1011,0 61 60 0,0
16.07.2018 14:00:00 29,3 8,9 36,3 36,1 25,7 20,4 8 5 16 9 SE 1011,8 49 59 0,0
16.07.2018 13:00:00 27,8 11,2 35,2 33,4 25,1 20,4 6 4 16 9 ENE 1012,3 61 55 0,0
16.07.2018 12:00:00 26,4 12,2 32,4 30,7 24,7 20,4 5 3 16 8 SE 1012,9 49 60 0,0
16.07.2018 11:00:00 24,1 12,4 29,0 27,6 24,5 20,4 5 3 11 6 SSE 1013,2 49 60 0,0
16.07.2018 10:00:00 22,5 12,0 27,4 24,6 24,5 20,4 3 2 8 5 E 1013,6 46 60 0,0
16.07.2018 09:00:00 20,0 12,0 23,6 22,4 24,7 20,4 3 2 8 4 E 1014,0 51 60 0,0
16.07.2018 08:00:00 18,2 11,9 20,0 21,2 25,1 20,4 3 1 10 6 SE 1014,1 56 60 0,0
16.07.2018 07:00:00 15,7 12,2 15,7 21,1 25,4 20,4 3 1 6 3 S 1014,3 51 35 0,0
16.07.2018 06:00:00 13,9 11,6 12,0 21,6 25,9 20,4 8 4 10 5 SSW 1014,3 46 0 0,0
16.07.2018 05:00:00 13,9 11,9 10,7 22,3 26,3 20,4 4 2 7 4 SSW 1014,3 39 0 0,0
16.07.2018 04:00:00 15,4 12,3 11,6 23,3 26,8 20,3 5 3 7 4 S 1014,2 45 0 0,0
16.07.2018 03:00:00 16,2 12,5 12,5 24,4 27,2 20,3 4 2 7 4 SSW 1014,3 31 0 0,0
16.07.2018 02:00:00 17,6 13,0 15,1 25,3 27,7 20,3 2 1 6 3 NW 1014,3 66 0 0,0
16.07.2018 01:00:00 18,9 12,4 14,1 26,5 28,1 20,3 5 3 10 6 WNW 1014,2 60 0 0,0
16.07.2018 00:00:00 20,1 12,1 15,4 28,0 28,5 20,3 2 1 14 8 SSE 1014,1 70 0 0,0
15.07.2018 23:00:00 23,0 12,0 20,8 29,6 28,8 20,3 6 3 16 9 W 1013,7 70 0 0,0
15.07.2018 22:00:00 24,5 12,0 23,0 31,7 29,0 20,3 10 6 21 12 SSW 1013,2 70 12 0,0
15.07.2018 21:00:00 27,8 8,0 27,7 33,9 29,0 20,3 9 5 19 10 N 1012,6 70 59 0,0
15.07.2018 20:00:00 28,8 7,3 30,2 36,0 28,9 20,3 9 5 16 9 N 1012,4 70 46 0,0
15.07.2018 19:00:00 29,8 7,4 34,0 37,8 28,5 20,3 8 5 18 10 NNW 1012,4 70 60 0,0
15.07.2018 18:00:00 30,2 6,5 35,0 38,6 28,0 20,3 8 5 24 13 N 1013,0 70 60 0,0
15.07.2018 17:00:00 30,1 6,5 36,2 38,7 27,3 20,3 9 5 26 14 N 1013,0 70 60 0,0
15.07.2018 16:00:00 30,0 7,8 37,0 38,3 26,5 20,3 12 6 26 14 N 1013,5 70 60 0,0
15.07.2018 15:00:00 29,3 8,6 37,1 37,3 25,6 20,3 12 6 22 12 NNE 1014,1 55 60 0,0
15.07.2018 14:00:00 28,5 7,3 35,5 35,6 24,9 20,3 9 5 19 10 ENE 1014,9 66 60 0,0
15.07.2018 13:00:00 27,9 8,9 36,4 33,1 24,2 20,3 7 4 18 10 NE 1015,7 53 60 0,0
15.07.2018 12:00:00 25,7 12,0 32,0 30,2 23,8 20,3 6 4 13 7 WNW 1016,2 55 60 0,0
15.07.2018 11:00:00 24,4 12,1 29,7 27,0 23,5 20,3 5 3 11 6 SSW 1016,7 45 60 0,0
15.07.2018 10:00:00 22,8 12,4 27,0 23,9 23,5 20,3 4 2 8 5 NNW 1017,0 41 60 0,0
15.07.2018 09:00:00 20,1 12,5 25,1 21,5 23,7 20,3 5 3 11 6 N 1017,2 44 60 0,0
15.07.2018 08:00:00 18,3 13,4 19,7 20,3 24,0 20,3 3 2 10 5 SSE 1017,2 30 60 0,0
15.07.2018 07:00:00 15,5 13,0 15,6 20,1 24,3 20,3 2 1 12 6 SW 1017,3 20 39 0,0
15.07.2018 06:00:00 14,1 12,0 12,9 20,5 24,7 20,3 4 2 7 4 SE 1017,4 23 0 0,0
15.07.2018 05:00:00 14,4 12,3 12,5 21,1 25,1 20,3 5 3 7 4 SSW 1017,5 24 0 0,0
15.07.2018 04:00:00 14,6 12,5 11,1 21,9 25,6 20,3 5 3 6 3 SSW 1017,6 24 0 0,0
15.07.2018 03:00:00 15,9 12,7 12,8 22,7 26,0 20,3 3 2 8 5 SSW 1017,5 32 0 0,0
15.07.2018 02:00:00 16,8 12,8 13,9 23,7 26,4 20,3 5 3 10 5 SSW 1017,6 30 0 0,0
15.07.2018 01:00:00 17,2 13,4 13,6 24,8 26,8 20,3 4 2 6 3 W 1017,6 30 0 0,0
15.07.2018 00:00:00 19,8 13,1 16,0 26,1 27,2 20,3 4 2 9 5 WNW 1017,5 53 0 0,0
14.07.2018 23:00:00 21,3 13,0 17,3 27,6 27,5 20,3 4 2 8 5 WSW 1017,2 51 0 0,0
14.07.2018 22:00:00 24,1 11,6 19,8 29,4 27,7 20,2 5 3 13 7 N 1016,8 52 0 0,0
14.07.2018 21:00:00 25,8 11,4 24,8 31,4 27,8 20,2 8 5 19 10 N 1016,3 55 57 0,0
14.07.2018 20:00:00 27,2 11,3 28,0 33,0 27,8 20,2 11 6 23 12 N 1016,1 49 49 0,0
14.07.2018 19:00:00 27,2 11,3 28,1 34,1 27,6 20,2 12 6 29 16 N 1016,3 55 17 0,0
14.07.2018 18:00:00 27,8 11,2 30,5 36,2 27,1 20,2 14 7 24 13 NNW 1016,5 59 32 0,0
14.07.2018 17:00:00 28,7 10,8 33,8 37,3 26,5 20,2 11 6 30 16 NW 1016,5 59 50 0,0
14.07.2018 16:00:00 29,2 10,8 35,4 37,4 25,7 20,2 6 3 23 12 NW 1016,9 70 50 0,0
14.07.2018 15:00:00 28,5 10,5 36,4 36,6 24,8 20,2 10 5 18 10 NNE 1017,4 64 50 0,0
14.07.2018 14:00:00 28,8 10,1 34,8 35,5 23,9 20,2 8 4 15 8 SW 1017,8 61 60 0,0
14.07.2018 13:00:00 27,2 9,5 33,5 32,7 23,2 20,2 6 4 12 7 SE 1018,5 43 60 0,0
14.07.2018 12:00:00 26,1 10,8 32,1 29,5 22,7 20,2 6 3 12 7 E 1019,2 54 60 0,0
14.07.2018 11:00:00 24,5 12,5 29,5 26,1 22,5 20,2 5 3 12 6 E 1019,5 46 60 0,0
14.07.2018 10:00:00 22,0 13,3 26,3 22,9 22,5 20,3 5 3 11 6 ENE 1020,0 33 57 0,0
14.07.2018 09:00:00 19,3 14,4 20,9 20,8 22,6 20,3 3 2 6 3 S 1020,2 30 26 0,0
14.07.2018 08:00:00 17,0 14,2 17,6 19,7 22,9 20,3 0 0 6 4 N 1020,0 21 4 0,0
14.07.2018 07:00:00 14,7 13,2 13,6 19,5 23,2 20,3 4 2 7 4 S 1020,0 12 0 0,0
14.07.2018 06:00:00 15,0 13,5 12,4 20,0 23,5 20,3 4 2 7 4 SW 1019,8 18 0 0,0
14.07.2018 05:00:00 15,7 13,8 13,6 20,8 23,8 20,3 3 1 5 3 S 1019,7 21 0 0,0
14.07.2018 04:00:00 15,9 13,7 14,5 21,3 24,1 20,3 3 2 6 3 SSE 1019,6 22 0 0,0
14.07.2018 03:00:00 16,2 14,0 15,6 21,6 24,4 20,3 5 3 7 4 S 1019,6 25 0 0,0
14.07.2018 02:00:00 16,1 14,0 14,3 22,2 24,8 20,3 5 3 6 4 SSW 1019,6 27 0 0,0
14.07.2018 01:00:00 16,7 14,1 14,3 22,9 25,2 20,3 4 2 8 4 S 1019,6 28 0 0,0
14.07.2018 00:00:00 17,6 14,5 14,4 23,9 25,5 20,3 6 3 8 4 SSW 1019,5 30 0 0,0
13.07.2018 23:00:00 18,1 14,5 14,2 25,3 25,8 20,3 3 2 9 5 S 1019,3 35 0 0,0
13.07.2018 22:00:00 21,6 14,0 16,7 27,1 26,0 20,3 4 2 10 6 WSW 1018,7 63 10 0,0
13.07.2018 21:00:00 25,0 12,2 24,8 28,5 26,2 20,3 6 3 11 6 NW 1018,1 70 34 0,0
13.07.2018 20:00:00 25,3 11,0 25,2 29,2 26,2 20,3 4 2 11 6 NW 1018,2 70 0 0,0
13.07.2018 19:00:00 25,6 10,2 25,5 30,8 26,1 20,3 8 4 19 10 NNW 1018,3 67 0 0,0
13.07.2018 18:00:00 26,1 10,9 27,3 33,1 25,8 20,3 9 5 19 10 NW 1018,6 54 0 0,0
13.07.2018 17:00:00 26,3 9,5 29,6 35,2 25,3 20,3 11 6 19 10 NNW 1018,6 70 45 0,0
13.07.2018 16:00:00 26,6 10,5 32,0 34,0 24,6 20,3 11 6 19 11 NW 1018,8 70 18 0,0
13.07.2018 15:00:00 25,7 12,0 28,5 35,6 23,7 20,3 8 5 23 12 WNW 1019,2 58 39 0,0
13.07.2018 14:00:00 26,6 13,4 37,1 34,2 22,8 20,3 11 6 24 13 NNW 1019,3 42 60 0,0
13.07.2018 13:00:00 25,6 12,5 35,3 31,4 22,1 20,3 9 5 19 10 NNW 1019,8 49 58 0,0

tt = temperature
td = dewpoint
tt 5cm = temperature 5cm
tt -5cm = temperature -5cm
tt -20cm = temperature -20cm
tt -100cm = temperature -100cm
ff = wind speed
fx = gusts
dd = wind direction
ppp = reduced air pressure
vv = visibility
sd = sunshine duration
rr = precipitation

Next stations